[[{"header":{"parameterUnit":"m.s-1","parameterCategory":1,"la1":30.2991,"la2":30.254,"lo1":-89.0895,"lo2":-89.0444,"dy":0.0017,"dx":0.0017,"nx":28,"ny":28,"refTime":"2023-08-01T03:00:00:Z","depth":0,"parameterNumber":2,"parameterNumberName":"U-component_of_WINDS"},"data":[0,0,0,0,0,0,0,0,0,0,0,0,0,0,0,0,0,0,0,0,0,0,0,0,0,0,0,0,0,0,0,0,0,0,0,0,0,0,0,0,0,0,0,0,0,0,0,0,0,0,0,0,0,0,0,0,0,0,-1.1763,-1.1763,0,-1.1714,-1.1713,-1.1712,-1.1726,-1.1727,-1.1728,-1.1729,-1.1675,-1.1673,-1.1671,0,0,0,0,0,0,0,0,0,0,0,0,0,-1.187,-1.1868,-1.1763,-1.1763,-1.1762,-1.1714,-1.1713,-1.1712,-1.1726,-1.1727,-1.1729,-1.173,-1.1676,-1.1673,-1.167,0,0,0,0,0,0,0,0,0,0,0,0,0,-1.1822,-1.1867,-1.1764,-1.1763,-1.1763,-1.1714,-1.1713,-1.1712,-1.1726,-1.1727,-1.1729,-1.173,-1.1677,-1.1674,-1.167,-1.1617,0,0,-1.1659,-1.1658,0,0,0,0,0,0,0,0,-1.1825,-1.1818,-1.1764,-1.1763,-1.1763,-1.1728,-1.1731,-1.168,-1.1725,-1.174,-1.1729,-1.1731,-1.1691,-1.1687,-1.1674,-1.1615,-1.1612,-1.1659,-1.1657,-1.1655,-1.1654,0,0,0,0,0,0,0,-1.1828,-1.182,-1.1744,-1.1763,-1.1762,-1.1765,-1.176,-1.1721,-1.1707,-1.1739,-1.174,-1.1734,-1.1691,-1.1677,-1.1673,-1.1612,-1.1659,-1.1656,-1.1654,-1.1652,-1.1508,-1.1506,0,0,0,0,0,0,-1.1832,-1.1823,-1.1745,-1.1742,-1.1798,-1.1762,-1.1757,-1.1737,-1.1708,-1.1705,-1.1732,-1.1734,-1.1683,-1.1677,-1.1671,-1.1607,-1.1655,-1.1652,-1.165,-1.1509,-1.1507,-1.1506,0,0,0,0,0,0,-1.1834,-1.1825,-1.1747,-1.1783,-1.1773,-1.1759,-1.1737,-1.1736,-1.1722,-1.1703,-1.1701,-1.1721,-1.1684,-1.1676,-1.1631,-1.1605,-1.165,-1.1647,-1.1511,-1.1509,-1.1506,-1.1479,0,0,0,0,0,0,-1.1837,-1.1826,-1.1805,-1.1782,-1.1771,-1.1708,-1.1736,-1.1733,-1.1716,-1.1718,-1.1692,-1.1689,-1.1684,-1.1636,-1.1627,-1.1601,-1.1644,-1.1514,-1.151,-1.1507,-1.1482,-1.1475,-1.147,0,0,0,0,0,-1.1841,-1.1799,-1.1804,-1.1795,-1.1746,-1.1707,-1.17,-1.1697,-1.1714,-1.1693,-1.1682,-1.1689,-1.161,-1.1631,-1.1622,-1.1594,-1.1515,-1.1511,-1.1507,-1.1484,-1.1477,-1.147,0,0,0,0,0,0,-1.1818,-1.1796,-1.1801,-1.1751,-1.1731,-1.1709,-1.1683,-1.1689,-1.1662,-1.1665,-1.1662,-1.1656,-1.161,-1.1598,-1.1622,-1.1542,-1.1565,-1.1559,-1.1551,-1.1543,-1.1538,-1.154,-1.1641,0,0,0,0,0,-1.1807,-1.1778,-1.176,-1.1717,-1.1707,-1.1697,-1.1679,-1.1679,-1.1657,-1.1649,-1.1634,-1.1612,-1.1583,-1.1563,-1.1534,-1.1481,-1.1475,-1.1458,-1.1452,-1.1447,-1.1441,-1.1412,-1.1404,-1.1493,-1.1493,-1.1493,0,0,-1.1784,-1.1768,-1.1749,-1.1712,-1.1696,-1.1665,-1.1689,-1.1655,-1.1632,-1.1643,-1.1599,-1.1589,-1.1564,-1.1515,-1.1493,-1.1503,-1.1416,-1.1442,-1.1439,-1.1435,-1.1407,-1.1399,-1.1392,-1.149,-1.1491,-1.1491,0,0,-1.1725,-1.1711,-1.1673,-1.1658,-1.1635,-1.1629,-1.162,-1.1598,-1.1591,-1.1548,-1.1556,-1.1529,-1.1478,-1.146,-1.1445,-1.1383,-1.1389,-1.1374,-1.1342,-1.1314,-1.1307,-1.1301,-1.1278,-1.127,-1.1369,-1.1369,-1.1369,0,-1.1698,-1.1653,-1.1653,-1.1619,-1.1602,-1.1613,-1.1575,-1.156,-1.1528,-1.1516,-1.1529,-1.1467,-1.1451,-1.1398,-1.1383,-1.1371,-1.136,-1.1375,-1.1309,-1.1302,-1.1296,-1.1274,-1.1266,-1.1367,-1.1367,-1.1367,-1.1368,0,-1.1621,-1.159,-1.1562,-1.1533,-1.1513,-1.1477,-1.1472,-1.1452,-1.1454,-1.1447,-1.1403,-1.1386,-1.1354,-1.1342,-1.1344,-1.129,-1.1297,-1.131,-1.1332,-1.1286,-1.1265,-1.1257,-1.1364,-1.1365,-1.1366,-1.1366,0,0,-1.1543,-1.1516,-1.1506,-1.1493,-1.1469,-1.1445,-1.141,-1.1381,-1.1363,-1.1342,-1.1312,-1.127,-1.1283,-1.1265,-1.1265,-1.1241,-1.1192,-1.1256,-1.1256,-1.1244,-1.1131,-1.112,-1.111,-1.1198,-1.1196,-1.1195,-1.1133,0,-1.1481,-1.142,-1.142,-1.1363,-1.1334,-1.1346,-1.1316,-1.1298,-1.1291,-1.1265,-1.1258,-1.1228,-1.1247,-1.1236,-1.1213,-1.1203,-1.1169,-1.1208,-1.1168,-1.1167,-1.1171,-1.1099,-1.1087,-1.1029,-1.1125,-1.1123,-1.1122,0,-1.1399,-1.1377,-1.1317,-1.1299,-1.1287,-1.126,-1.1234,-1.1209,-1.119,-1.1187,-1.1169,-1.1173,-1.1138,-1.1164,-1.1115,-1.1141,-1.1126,-1.1119,-1.1117,-1.1111,-1.114,-1.1089,-1.101,-1.1001,-1.111,-1.1111,-1.1111,0,-1.1346,-1.1301,-1.126,-1.1249,-1.1227,-1.1208,-1.1198,-1.118,-1.1163,-1.1141,-1.1129,-1.1103,-1.1087,-1.1067,-1.1064,-1.1084,-1.1015,-1.1041,-1.101,-1.101,-1.0992,-1.0993,-1.0907,-1.0986,-1.0986,-1.0987,-1.0987,0,-1.1275,-1.1238,-1.1236,-1.121,-1.1169,-1.1171,-1.113,-1.1122,-1.1107,-1.108,-1.1089,-1.1063,-1.1063,-1.1036,-1.1034,-1.0994,-1.0987,-1.0983,-1.0982,-1.0981,-1.0981,-1.0968,-1.0971,-1.0984,-1.0985,-1.0985,-1.0986,0,-1.1207,-1.1204,-1.116,-1.1145,-1.114,-1.111,-1.1097,-1.1072,-1.1068,-1.1034,-1.1026,-1.1018,-1.0988,-1.0984,-1.0949,-1.0948,-1.0898,-1.0903,-1.0904,-1.0904,-1.0873,-1.0875,-1.0774,-1.0761,-1.0851,-1.085,-1.0849,0,-1.116,-1.1132,-1.1115,-1.1098,-1.1087,-1.1059,-1.1043,-1.1044,-1.1026,-1.1004,-1.0982,-1.0953,-1.093,-1.0881,-1.0872,-1.0846,-1.0849,-1.0815,-1.0844,-1.0844,-1.0846,-1.0847,-1.0844,-1.0808,-1.0808,-1.0807,-1.0806,0,-1.1078,-1.1078,-1.1054,-1.1029,-1.1009,-1.099,-1.0972,-1.0957,-1.0957,-1.0937,-1.0907,-1.0889,-1.0854,-1.0825,-1.0799,-1.0789,-1.0797,-1.0798,-1.0789,-1.0785,-1.0786,-1.0784,-1.0887,-1.0799,-1.08,-1.08,-1.0801,-1.0801,-1.1017,-1.0993,-1.0977,-1.095,-1.0937,-1.0921,-1.0897,-1.0891,-1.0866,-1.0838,-1.0842,-1.0808,-1.0791,-1.0758,-1.0746,-1.072,-1.0731,-1.0718,-1.0715,-1.0711,-1.0707,-1.0794,-1.0716,-1.0716,-1.0716,-1.0716,-1.0716,0,-1.0933,-1.0925,-1.09,-1.0875,-1.0854,-1.0867,-1.0848,-1.0829,-1.0799,-1.0784,-1.0762,-1.0728,-1.07,-1.0691,-1.0664,-1.0645,-1.0648,-1.0638,-1.0638,-1.0635,-1.0699,-1.0709,-1.0636,-1.0636,-1.0636,-1.0636,-1.0636,-1.0636,-1.0887,-1.0847,-1.0846,-1.08,-1.0791,-1.0759,-1.0747,-1.0732,-1.072,-1.0682,-1.066,-1.0654,-1.0641,-1.0614,-1.059,-1.0588,-1.0577,-1.0564,-1.0564,-1.0623,-1.0631,-1.0638,-1.0647,-1.0563,-1.0563,-1.0502,-1.0501,-1.0501]},{"header":{"parameterUnit":"m.s-1","parameterCategory":1,"la1":30.2991,"la2":30.254,"lo1":-89.0895,"lo2":-89.0444,"dy":0.0017,"dx":0.0017,"nx":28,"ny":28,"refTime":"2023-08-01T03:00:00:Z","depth":0,"parameterNumber":3,"parameterNumberName":"V-component_of_WINDS"},"data":[0,0,0,0,0,0,0,0,0,0,0,0,0,0,0,0,0,0,0,0,0,0,0,0,0,0,0,0,0,0,0,0,0,0,0,0,0,0,0,0,0,0,0,0,0,0,0,0,0,0,0,0,0,0,0,0,0,0,1.1839,1.1839,0,1.1836,1.1836,1.1836,1.1837,1.1837,1.1837,1.1837,1.1832,1.1831,1.1831,0,0,0,0,0,0,0,0,0,0,0,0,0,1.1842,1.1842,1.1839,1.1839,1.1839,1.1836,1.1836,1.1836,1.1837,1.1837,1.1837,1.1837,1.1832,1.1831,1.1831,0,0,0,0,0,0,0,0,0,0,0,0,0,1.184,1.1842,1.1839,1.1839,1.1839,1.1836,1.1836,1.1836,1.1837,1.1837,1.1837,1.1837,1.1832,1.1831,1.1831,1.1827,0,0,1.183,1.183,0,0,0,0,0,0,0,0,1.184,1.184,1.1839,1.1839,1.1839,1.1837,1.1835,1.1833,1.1837,1.1838,1.1837,1.1838,1.1833,1.1833,1.1832,1.1826,1.1826,1.183,1.183,1.183,1.183,0,0,0,0,0,0,0,1.184,1.184,1.1838,1.1839,1.1839,1.1838,1.1838,1.1834,1.1835,1.1838,1.1838,1.1838,1.1833,1.1832,1.1832,1.1826,1.183,1.183,1.183,1.1829,1.1812,1.1812,0,0,0,0,0,0,1.1841,1.184,1.1838,1.1838,1.184,1.1838,1.1838,1.1838,1.1835,1.1835,1.1838,1.1838,1.1833,1.1832,1.1831,1.1823,1.183,1.1829,1.1829,1.1812,1.1812,1.1812,0,0,0,0,0,0,1.1841,1.1841,1.1838,1.1839,1.1838,1.1838,1.1838,1.1838,1.1837,1.1835,1.1834,1.1837,1.1833,1.1832,1.1827,1.1823,1.1829,1.1829,1.1813,1.1812,1.1812,1.1808,0,0,0,0,0,0,1.1841,1.1841,1.184,1.1839,1.1838,1.1835,1.1838,1.1837,1.1836,1.1836,1.1834,1.1833,1.1833,1.1827,1.1827,1.1823,1.1829,1.1813,1.1812,1.1812,1.1809,1.1808,1.1807,0,0,0,0,0,1.1841,1.184,1.184,1.184,1.1838,1.1835,1.1835,1.1835,1.1836,1.1834,1.1833,1.1834,1.1824,1.1827,1.1826,1.1822,1.1813,1.1813,1.1812,1.1809,1.1808,1.1807,0,0,0,0,0,0,1.1841,1.184,1.184,1.1839,1.1837,1.1835,1.1834,1.1834,1.1831,1.1832,1.1831,1.183,1.1824,1.1823,1.1826,1.1815,1.1818,1.1818,1.1817,1.1816,1.1815,1.1815,1.1828,0,0,0,0,0,1.1841,1.184,1.1838,1.1837,1.1836,1.1835,1.1834,1.1833,1.1831,1.183,1.1828,1.1825,1.1821,1.1818,1.1815,1.1809,1.1806,1.1805,1.1804,1.1803,1.1802,1.1795,1.1794,1.181,1.181,1.181,0,0,1.1841,1.184,1.1839,1.1837,1.1836,1.1832,1.1834,1.1832,1.1829,1.183,1.1824,1.1822,1.1818,1.1812,1.1809,1.1811,1.1797,1.1803,1.1802,1.1802,1.1795,1.1793,1.1792,1.1809,1.1809,1.181,0,0,1.1838,1.1838,1.1836,1.1834,1.1831,1.183,1.1829,1.1827,1.1825,1.182,1.182,1.1815,1.1809,1.1805,1.1802,1.1794,1.1794,1.1793,1.1788,1.1782,1.178,1.1779,1.1774,1.1772,1.1792,1.1792,1.1792,0,1.1838,1.1835,1.1835,1.1831,1.1829,1.1829,1.1825,1.1822,1.1819,1.1816,1.1818,1.1807,1.1805,1.1796,1.1794,1.1792,1.1789,1.1793,1.1781,1.178,1.1778,1.1773,1.1771,1.1792,1.1792,1.1792,1.1792,0,1.1833,1.183,1.1828,1.1824,1.1821,1.1818,1.1815,1.1812,1.1811,1.1809,1.1801,1.1798,1.1792,1.179,1.1789,1.1779,1.178,1.1781,1.1784,1.1777,1.1771,1.177,1.1792,1.1792,1.1792,1.1792,0,0,1.1833,1.1826,1.1825,1.1822,1.1817,1.1814,1.1809,1.1803,1.1799,1.1795,1.1789,1.1782,1.1782,1.1779,1.1777,1.1772,1.1761,1.1773,1.1773,1.1769,1.1747,1.1745,1.1743,1.1761,1.1761,1.1761,1.1746,0,1.1828,1.182,1.1818,1.181,1.1806,1.1804,1.1799,1.1794,1.1791,1.1785,1.1781,1.1775,1.1777,1.1774,1.1769,1.1764,1.1757,1.1765,1.1753,1.1753,1.1753,1.174,1.1739,1.1726,1.1744,1.1744,1.1744,0,1.1823,1.1818,1.181,1.1802,1.18,1.1796,1.1788,1.1784,1.1777,1.1775,1.1769,1.1767,1.1759,1.1762,1.1749,1.1755,1.1749,1.1746,1.1745,1.1743,1.1747,1.1736,1.1722,1.1719,1.1741,1.1741,1.1742,0,1.1821,1.1812,1.1805,1.1802,1.1794,1.1791,1.1787,1.178,1.1776,1.1768,1.1765,1.1757,1.1752,1.1745,1.1739,1.1743,1.1725,1.1729,1.1721,1.1721,1.1717,1.1717,1.17,1.1716,1.1716,1.1716,1.1716,0,1.1816,1.181,1.1804,1.1799,1.1791,1.1788,1.178,1.1776,1.1769,1.1762,1.176,1.1753,1.1747,1.1738,1.1734,1.1722,1.172,1.1717,1.1715,1.1716,1.1716,1.1712,1.1712,1.1716,1.1716,1.1716,1.1716,0,1.1812,1.1808,1.18,1.1792,1.1789,1.1784,1.1776,1.177,1.1766,1.1756,1.1754,1.1746,1.1736,1.173,1.1717,1.1714,1.1699,1.17,1.1702,1.1701,1.1692,1.1692,1.1671,1.1666,1.1687,1.1687,1.1687,0,1.1809,1.1804,1.1795,1.179,1.1786,1.1779,1.1773,1.1768,1.1762,1.1752,1.1746,1.1736,1.1727,1.1709,1.1702,1.1691,1.1689,1.1682,1.1688,1.1687,1.1686,1.1686,1.1684,1.1681,1.1681,1.1681,1.1681,0,1.1803,1.18,1.1793,1.1784,1.1777,1.177,1.1762,1.1758,1.1751,1.1744,1.1733,1.1726,1.1711,1.1699,1.1687,1.1681,1.1678,1.1679,1.1676,1.1676,1.1677,1.1674,1.1697,1.1679,1.168,1.168,1.168,1.168,1.1798,1.1792,1.1784,1.1775,1.1768,1.176,1.1753,1.1747,1.1738,1.1726,1.1723,1.171,1.17,1.1683,1.1676,1.1664,1.1666,1.1662,1.1661,1.166,1.1658,1.1679,1.1662,1.1662,1.1663,1.1663,1.1663,0,1.179,1.1783,1.1775,1.1764,1.1756,1.1754,1.1745,1.1737,1.1727,1.1717,1.1708,1.1693,1.168,1.1671,1.1657,1.1649,1.1648,1.1646,1.1646,1.1644,1.1659,1.1662,1.1647,1.1647,1.1647,1.1647,1.1647,1.1647,1.1784,1.1774,1.1769,1.1753,1.1747,1.1735,1.1729,1.172,1.1712,1.1696,1.1685,1.1679,1.1668,1.1653,1.1641,1.1638,1.1632,1.163,1.1627,1.1641,1.1643,1.1645,1.1647,1.1629,1.1629,1.1612,1.1612,1.1611]}]]